Voltar ao catálogo

PRAETORIAN SDA_518

AtivoPO
NORAD 100076·PAYLOAD·🇺🇸 United States

Lançado Jul 16, 2026 de Vandenberg Space Force Base

Loading…

Próximas Passagens (próximas 24 horas)

TLE

AtualizadoSource: Space-Track

Época: Sep 14, 2026, 10:44 UTC

1 A0076U 26163T   26257.44786836  .00000105  00000-0  79800-4 0  9993
2 A0076  81.4773 255.4228 0017743  57.2340 303.0525 13.86191113  8264

Acompanhe PRAETORIAN SDA_518 em tempo real com AllMySat

Download on the App Store